Location: Lone Wolf Observatory
(41.0360°N, 89.2260°W)
Time: 01:27:00
(UTC-05:00)

Amateur Radio Satellites - All Passes

Search period start: 02 September 2015 00:57
Search period end: 03 September 2015 00:57
Location: Lone Wolf Observatory, 41.0360°N, 89.2260°W

Satellite Date Start Highest point End Downlink Frequencies (MHz)
Time Altitude Azimuth
POLYITAN 1 02 Sep 01:00:14 01:04:04 31° 290° (WNW) 01:07:50 437.675
DUCHIFAT 1 02 Sep 01:01:42 01:05:32 31° 290° (WNW) 01:09:18 145.980
POPSAT HIP 1 02 Sep 01:02:22 01:06:10 30° 290° (WNW) 01:09:54 437.405
Cosmos 2504 02 Sep 01:02:55 01:10:17 34° 291° (WNW) 01:17:49 435.465 / 435.565
BUGSAT 1 02 Sep 01:03:49 01:07:55 46° 287° (WNW) 01:12:00 437.445
Oscar 19 02 Sep 01:11:29 01:14:02 14° 88° (E) 01:16:51 437.125/150
SPROUT 02 Sep 01:13:59 01:17:38 26° 266° (W) 01:21:13 437.525
CUSAT 1 02 Sep 01:15:33 01:19:09 27° 294° (WNW) 01:23:38 437.405
NANOSAT C BR1 02 Sep 01:20:11 01:23:24 20° 293° (WNW) 01:26:31 145.865
QB50P2 02 Sep 01:20:12 01:23:22 20° 293° (WNW) 01:26:24 145.880/145.840
BEESAT 3 02 Sep 01:23:05 01:24:17 11° 251° (WSW) 01:25:16 437.485
ITUPSAT 1 02 Sep 01:26:45 01:31:11 40° 71° (ENE) 01:35:40 437.325
QB50P1 02 Sep 01:35:02 01:37:30 15° 295° (WNW) 01:39:48 145.935-145.965
BEESAT 2 02 Sep 01:37:13 01:38:10 11° 251° (WSW) 01:38:53 435.950
SO-50 02 Sep 01:40:22 01:45:06 59° 306° (NW) 01:50:00 436.795
RS-15 02 Sep 01:46:40 01:58:34 80° 241° (WSW) 02:10:48 29.354- 29.394
PCSat 02 Sep 01:47:51 01:53:11 65° 115° (ESE) 01:58:34 145.827
DANDE 02 Sep 01:53:49 01:56:25 16° 299° (WNW) 01:59:20 436.750
BEESAT 02 Sep 01:58:46 02:03:33 87° 75° (ENE) 02:08:20 436.000
Gurwin Techsat 1B 02 Sep 02:02:21 02:04:43 13° 88° (E) 02:07:22 435.225
ITAMSAT 1 02 Sep 02:13:14 02:15:29 13° 88° (E) 02:18:01 435.822/435.867
GONETS M04 02 Sep 02:16:24 02:24:10 40° 87° (E) 02:32:08
AIST 2 02 Sep 02:19:57 02:23:00 19° 248° (WSW) 02:25:54 435.215
SWISSCUBE 02 Sep 02:25:12 02:29:47 46° 261° (W) 02:34:23 437.505
STARS 02 Sep 02:29:34 02:32:28 18° 66° (ENE) 02:35:33 437.465
VERMONT LUNAR 02 Sep 02:42:22 02:44:20 16° 152° (SSE) 02:46:21 437.305
Oscar 19 02 Sep 02:48:48 02:53:59 69° 287° (WNW) 02:59:08 437.125/150
KKS-1 02 Sep 02:49:52 02:54:08 48° 72° (ENE) 02:58:28 437.445
ITUPSAT 1 02 Sep 03:05:36 03:09:16 21° 267° (W) 03:12:48 437.325
MOZHAYETS 4 02 Sep 03:13:52 03:15:56 13° 64° (ENE) 03:18:14
AO-7 02 Sep 03:16:20 03:19:53 14° 85° (E) 03:24:05 29.400- 29.500
O/OREOS (USA 219) 02 Sep 03:24:42 03:26:11 12° 49° (NE) 03:27:53 437.305
SO-50 02 Sep 03:24:50 03:26:46 12° 328° (NNW) 03:28:33 436.795
PCSat 02 Sep 03:32:57 03:37:07 21° 315° (NW) 03:41:11 145.827
Gurwin Techsat 1B 02 Sep 03:40:02 03:45:22 74° 286° (WNW) 03:50:39 435.225
JAS-2 02 Sep 03:43:21 03:50:13 58° 98° (E) 03:56:14 435.910
ITAMSAT 1 02 Sep 03:50:27 03:55:38 73° 286° (WNW) 04:00:48 435.822/435.867
HORYU 2 02 Sep 03:54:09 03:56:34 15° 90° (E) 03:59:11 437.375
RS-15 02 Sep 04:01:35 04:09:36 20° 259° (W) 04:16:54 29.354- 29.394
STARS 02 Sep 04:04:23 04:08:37 44° 261° (W) 04:12:52 437.465
Cosmos 2499 02 Sep 04:08:05 04:16:13 55° 91° (E) 04:24:49 435.465 / 435.565
GONETS M04 02 Sep 04:12:44 04:20:58 45° 287° (WNW) 04:29:12
VERMONT LUNAR 02 Sep 04:17:29 04:20:25 56° 167° (SSE) 04:23:21 437.305
KKS-1 02 Sep 04:28:17 04:31:05 16° 269° (W) 04:33:43 437.445
MOZHAYETS 4 02 Sep 04:48:05 04:52:40 67° 259° (W) 04:57:16
O/OREOS (USA 219) 02 Sep 05:01:45 05:06:23 87° 249° (WSW) 05:10:58 437.305
AO-7 02 Sep 05:05:55 05:14:15 77° 106° (ESE) 05:22:32 29.400- 29.500
CUBESAT XI-V 02 Sep 05:10:12 05:13:19 19° 66° (ENE) 05:16:35 437.345
Gurwin Techsat 1B 02 Sep 05:23:52 05:24:32 10° 302° (WNW) 05:24:53 435.225
PHONESAT 2.4 02 Sep 05:26:12 05:29:11 28° 156° (SSE) 05:32:11 2401.200-2431.200
JAS-2 02 Sep 05:29:09 05:34:46 26° 299° (WNW) 05:39:44 435.910
HORYU 2 02 Sep 05:29:13 05:33:34 51° 287° (WNW) 05:37:51 437.375
STRAND 1 02 Sep 05:35:18 05:36:32 11° 60° (ENE) 05:38:05 437.568
VERMONT LUNAR 02 Sep 05:53:48 05:56:47 81° 183° (S) 05:59:45 437.305
Cosmos 2499 02 Sep 06:02:10 06:09:50 34° 292° (WNW) 06:17:37 435.465 / 435.565
CUTE-I 02 Sep 06:25:00 06:29:10 24° 93° (E) 06:33:28 437.470
PRISM 02 Sep 06:35:34 06:38:49 24° 69° (ENE) 06:42:10 437.425
CUBESAT XI-V 02 Sep 06:46:04 06:50:28 44° 262° (W) 06:54:52 437.345
AO-7 02 Sep 06:59:49 07:06:21 26° 304° (NW) 07:12:37 29.400- 29.500
PHONESAT 2.4 02 Sep 07:03:26 07:06:49 74° 173° (S) 07:10:14 2401.200-2431.200
STRAND 1 02 Sep 07:09:56 07:15:03 85° 76° (ENE) 07:20:11 437.568
Cubesat XI-IV 02 Sep 07:19:39 07:25:00 76° 103° (ESE) 07:30:20 437.490
VERMONT LUNAR 02 Sep 07:30:16 07:33:03 36° 200° (SSW) 07:35:49 437.305
YUBILEINY 02 Sep 07:38:34 07:46:43 41° 71° (ENE) 07:54:56 435.215
CUTE-I 02 Sep 08:04:26 08:09:28 43° 290° (WNW) 08:14:28 437.470
PRISM 02 Sep 08:10:39 08:14:10 27° 264° (W) 08:17:38 437.425
BRITE-PL 02 Sep 08:15:13 08:20:40 55° 99° (E) 08:26:15 437.365/2234.400
Cosmos 2491 02 Sep 08:26:51 08:34:38 40° 87° (E) 08:42:33 435.465 / 435.565
SO-50 02 Sep 08:32:21 08:35:56 20° 40° (NE) 08:39:33 436.795
AIST 1 02 Sep 08:34:03 08:38:15 63° 280° (W) 08:42:29
HO-68 02 Sep 08:36:08 08:42:03 28° 93° (E) 08:48:07 435.675
GOMX 1 02 Sep 08:36:34 08:41:55 52° 98° (E) 08:47:16 467.674
PHONESAT 2.4 02 Sep 08:41:16 08:44:41 73° 188° (S) 08:48:04 2401.200-2431.200
DOVE 4 02 Sep 08:42:59 08:47:52 36° 95° (E) 08:52:43 437.250
ISS 02 Sep 08:46:31 08:49:46 81° 143° (SE) 08:53:02 145.825
CUTE 1.7 + AOD 2 02 Sep 08:53:23 08:56:57 27° 95° (E) 09:00:34 437.475
STRAND 1 02 Sep 08:53:47 08:55:02 11° 274° (W) 08:55:55 437.568
PCSat 02 Sep 08:55:41 08:56:18 10° 33° (NNE) 08:57:08 145.827
Cosmos 2504 02 Sep 08:58:13 09:03:13 17° 59° (ENE) 09:08:30 435.465 / 435.565
Cubesat XI-IV 02 Sep 09:01:30 09:04:32 15° 299° (WNW) 09:07:20 437.490
CANX-2 02 Sep 09:07:19 09:11:21 43° 98° (E) 09:15:22 2200.000
CINEMA 3 02 Sep 09:17:24 09:21:54 34° 95° (E) 09:26:19 145.822/145.860
SEEDS 02 Sep 09:25:55 09:29:59 49° 99° (E) 09:34:03 437.485
UNISAT 6 02 Sep 09:27:54 09:30:43 16° 65° (ENE) 09:33:43 437.425
YUBILEINY 02 Sep 09:35:25 09:43:40 45° 272° (W) 09:51:46 435.215
Oscar 11 02 Sep 09:40:47 09:44:01 21° 93° (E) 09:47:19 145.826/435.025
COMPASS 1 02 Sep 09:45:07 09:49:15 65° 100° (E) 09:53:21 437.405
AAUSAT CUBESAT 2 02 Sep 09:53:53 09:58:01 69° 101° (E) 10:02:07 437.432
TIGRISAT 02 Sep 09:54:29 09:58:26 28° 69° (ENE) 10:02:29 435.000
BRITE-PL 02 Sep 09:54:33 09:58:49 22° 294° (WNW) 10:03:01 437.365/2234.400
AUBIESAT-1 02 Sep 10:00:15 10:04:33 36° 66° (ENE) 10:08:48 437.475
M-CUBED/EXP-1 PRIME 02 Sep 10:06:49 10:11:26 49° 68° (ENE) 10:16:00 437.505
CUSAT 1 02 Sep 10:06:55 10:13:57 35° 69° (ENE) 10:21:24 437.405
DELFI C3 02 Sep 10:07:03 10:10:20 25° 95° (E) 10:13:39 145.870
ANTELSAT 02 Sep 10:11:43 10:16:09 43° 72° (ENE) 10:20:39 437.575/2403.000
SO-50 02 Sep 10:12:05 10:17:01 68° 240° (WSW) 10:21:47 436.795
GOMX 1 02 Sep 10:15:27 10:19:41 23° 294° (WNW) 10:23:47 467.674
POLYITAN 1 02 Sep 10:18:09 10:20:59 18° 66° (ENE) 10:23:59 437.675
DUCHIFAT 1 02 Sep 10:19:11 10:21:53 17° 66° (ENE) 10:24:44 145.980
PHONESAT 2.4 02 Sep 10:19:21 10:22:19 27° 205° (SSW) 10:25:15 2401.200-2431.200
POPSAT HIP 1 02 Sep 10:20:03 10:22:55 18° 67° (ENE) 10:25:55 437.405
DOVE 4 02 Sep 10:20:54 10:25:28 29° 292° (WNW) 10:29:55 437.250
BUGSAT 1 02 Sep 10:21:36 10:22:25 11° 63° (ENE) 10:23:27 437.445
HO-68 02 Sep 10:23:09 10:30:11 56° 291° (WNW) 10:37:09 435.675
Cosmos 2491 02 Sep 10:23:11 10:31:27 45° 287° (WNW) 10:39:40 435.465 / 435.565
ISS 02 Sep 10:23:59 10:26:31 20° 341° (NNW) 10:29:01 145.825
ZACube-1 02 Sep 10:26:47 10:31:05 44° 98° (E) 10:35:17 437.345
CUTE 1.7 + AOD 2 02 Sep 10:29:17 10:32:48 25° 291° (WNW) 10:36:13 437.475
FUNcube-1 02 Sep 10:31:23 10:35:43 48° 98° (E) 10:39:57 145.935
CUBEBUG 2 02 Sep 10:33:39 10:38:22 89° 283° (WNW) 10:42:54 437.445
PCSat 02 Sep 10:35:52 10:41:09 50° 55° (NE) 10:46:25 145.827
NANOSAT C BR1 02 Sep 10:36:23 10:39:54 26° 69° (ENE) 10:43:32 145.865
QB50P2 02 Sep 10:36:36 10:40:13 28° 70° (ENE) 10:43:56 145.880/145.840
UWE-3 02 Sep 10:37:12 10:41:49 78° 102° (ESE) 10:46:15 435.000/436.395/437.385
CANX-2 02 Sep 10:44:13 10:46:57 16° 294° (WNW) 10:49:32 2200.000
DANDE 02 Sep 10:46:14 10:53:33 47° 74° (ENE) 11:01:43 436.750
Cosmos 2504 02 Sep 10:48:31 10:57:04 84° 82° (E) 11:05:02 435.465 / 435.565
QB50P1 02 Sep 10:50:19 10:54:14 38° 72° (ENE) 10:58:14 145.935-145.965
CINEMA 3 02 Sep 10:54:42 10:58:57 28° 292° (WNW) 11:03:02 145.822/145.860
HUMSAT D 02 Sep 10:58:19 11:02:14 36° 97° (E) 11:06:06 437.325/437.525
UNISAT 6 02 Sep 11:02:27 11:07:04 56° 261° (W) 11:11:43 437.425
SEEDS 02 Sep 11:03:03 11:05:24 14° 294° (WNW) 11:07:34 437.485
DX 1 02 Sep 11:11:15 11:15:01 28° 95° (E) 11:18:49 434.975-435.025
Oscar 11 02 Sep 11:16:22 11:20:18 33° 289° (WNW) 11:24:08 145.826/435.025
UKube-1 02 Sep 11:21:06 11:24:59 32° 96° (E) 11:28:54 .
COMPASS 1 02 Sep 11:23:02 11:24:25 11° 296° (WNW) 11:25:36 437.405
TIGRISAT 02 Sep 11:30:58 11:35:06 30° 265° (W) 11:39:14 435.000
AAUSAT CUBESAT 2 02 Sep 11:32:06 11:33:06 11° 296° (WNW) 11:33:52 437.432
ESTCUBE 1 02 Sep 11:33:13 11:36:49 24° 94° (E) 11:40:32 437.505/2401.250
AUBIESAT-1 02 Sep 11:35:19 11:39:16 25° 261° (W) 11:43:06 437.475
CUBEBUG 1 02 Sep 11:35:46 11:39:04 21° 93° (E) 11:42:28 437.445
AISAT 02 Sep 11:39:51 11:44:03 38° 98° (E) 11:48:15 437.250
DELFI C3 02 Sep 11:42:03 11:45:20 24° 290° (WNW) 11:48:31 145.870
M-CUBED/EXP-1 PRIME 02 Sep 11:42:56 11:46:25 19° 263° (W) 11:49:43 437.505
CUSAT 1 02 Sep 11:49:06 11:56:47 55° 266° (W) 12:04:41 437.405
ANTELSAT 02 Sep 11:49:43 11:53:09 19° 269° (W) 11:56:28 437.575/2403.000
POLYITAN 1 02 Sep 11:52:33 11:56:36 41° 262° (W) 12:00:41 437.675
BUGSAT 1 02 Sep 11:53:18 11:57:21 68° 259° (WSW) 12:01:28 437.445
DUCHIFAT 1 02 Sep 11:53:21 11:57:23 42° 262° (W) 12:01:27 145.980
POPSAT HIP 1 02 Sep 11:54:30 11:58:30 39° 262° (W) 12:02:33 437.405
ISS 02 Sep 12:02:16 12:03:51 13° 1° (N) 12:05:27 145.825
ZACube-1 02 Sep 12:04:01 12:07:06 18° 294° (WNW) 12:10:00 437.345
VELOX 1 02 Sep 12:07:22 12:11:51 74° 102° (ESE) 12:16:19 145.980
50 SAT 02 Sep 12:08:07 12:11:59 80° 284° (WNW) 12:15:48 437.505
FUNcube-1 02 Sep 12:08:46 12:11:39 17° 295° (WNW) 12:14:21 145.935
NANOSAT C BR1 02 Sep 12:12:05 12:15:42 26° 265° (W) 12:19:16 145.865
QB50P2 02 Sep 12:12:33 12:16:06 25° 266° (W) 12:19:36 145.880/145.840
HO-68 02 Sep 12:14:35 12:16:34 11° 310° (NW) 12:18:06 435.675
UWE-3 02 Sep 12:16:10 12:17:43 11° 298° (WNW) 12:19:00 435.000/436.395/437.385
PCSat 02 Sep 12:20:01 12:24:17 23° 252° (WSW) 12:28:21 145.827
TISAT 1 02 Sep 12:23:38 12:24:44 11° 88° (E) 12:26:07 437.305
GONETS M04 02 Sep 12:27:03 12:32:49 20° 60° (ENE) 12:39:02
QB50P1 02 Sep 12:27:17 12:30:17 18° 268° (W) 12:33:10 145.935-145.965
Oscar 19 02 Sep 12:27:49 12:31:37 22° 65° (ENE) 12:35:34 437.125/150
DANDE 02 Sep 12:29:28 12:36:41 42° 268° (W) 12:44:26 436.750
HUMSAT D 02 Sep 12:34:40 12:37:43 19° 293° (WNW) 12:40:36 437.325/437.525
Cosmos 2504 02 Sep 12:42:37 12:48:14 19° 281° (W) 12:53:15 435.465 / 435.565
DX 1 02 Sep 12:47:30 12:51:11 26° 292° (WNW) 12:54:49 434.975-435.025
UKube-1 02 Sep 12:57:30 13:00:58 23° 292° (WNW) 13:04:20 .
SPROUT 02 Sep 12:59:47 13:04:03 53° 100° (E) 13:08:18 437.525
ESTCUBE 1 02 Sep 13:09:44 13:13:44 32° 290° (WNW) 13:17:42 437.505/2401.250
CUBEBUG 1 02 Sep 13:11:28 13:15:32 35° 289° (WNW) 13:19:33 437.445
AISAT 02 Sep 13:17:00 13:20:23 21° 293° (WNW) 13:23:39 437.250
Gurwin Techsat 1B 02 Sep 13:22:44 13:26:43 23° 65° (ENE) 13:30:50 435.225
ITAMSAT 1 02 Sep 13:30:35 13:34:22 22° 65° (ENE) 13:38:17 435.822/435.867
BEESAT 3 02 Sep 13:37:35 13:38:52 12° 110° (ESE) 13:40:23 437.485
ISS 02 Sep 13:38:31 13:41:10 22° 21° (NNE) 13:43:49 145.825
VELOX 1 02 Sep 13:46:13 13:47:51 12° 297° (WNW) 13:49:16 145.980
BEESAT 2 02 Sep 13:51:57 13:53:37 13° 110° (ESE) 13:55:30 435.950
JAS-2 02 Sep 13:53:54 14:00:22 31° 63° (ENE) 14:07:03 435.910
TISAT 1 02 Sep 13:56:44 14:00:59 62° 286° (WNW) 14:05:11 437.305
BEESAT 02 Sep 13:59:49 14:03:28 22° 93° (E) 14:07:14 436.000
Cosmos 2499 02 Sep 14:01:02 14:06:48 20° 60° (ENE) 14:12:43 435.465 / 435.565
RS-15 02 Sep 14:05:25 14:09:40 14° 98° (E) 14:14:59 29.354- 29.394
Oscar 19 02 Sep 14:05:41 14:10:40 48° 261° (W) 14:15:42 437.125/150
AO-7 02 Sep 14:14:45 14:20:47 24° 54° (NE) 14:27:06 29.400- 29.500
GONETS M04 02 Sep 14:22:15 14:31:06 89° 266° (W) 14:39:58
SWISSCUBE 02 Sep 14:25:25 14:29:58 44° 99° (E) 14:34:31 437.505
SPROUT 02 Sep 14:37:14 14:39:43 15° 295° (WNW) 14:42:02 437.525
HORYU 2 02 Sep 14:52:41 14:55:09 15° 64° (ENE) 14:57:48 437.375
Gurwin Techsat 1B 02 Sep 15:01:18 15:06:25 48° 261° (W) 15:11:33 435.225
ITUPSAT 1 02 Sep 15:04:44 15:09:31 82° 285° (WNW) 15:14:17 437.325
ITAMSAT 1 02 Sep 15:08:34 15:13:34 48° 260° (W) 15:18:35 435.822/435.867
BEESAT 3 02 Sep 15:12:18 15:16:19 63° 304° (NW) 15:20:23 437.485
ISS 02 Sep 15:14:35 15:17:49 63° 219° (SW) 15:21:02 145.825
BEESAT 2 02 Sep 15:27:11 15:31:13 59° 305° (NW) 15:35:18 435.950
BEESAT 02 Sep 15:37:03 15:41:27 38° 290° (WNW) 15:45:49 436.000
JAS-2 02 Sep 15:37:20 15:44:57 62° 261° (W) 15:52:44 435.910
Cosmos 2499 02 Sep 15:52:42 16:01:24 87° 264° (W) 16:09:27 435.465 / 435.565
STARS 02 Sep 15:54:09 15:58:09 33° 96° (E) 16:02:11 437.465
SWISSCUBE 02 Sep 16:04:02 16:07:32 20° 294° (WNW) 16:10:55 437.505
AO-7 02 Sep 16:04:24 16:12:47 84° 253° (WSW) 16:21:10 29.400- 29.500
RS-15 02 Sep 16:09:24 16:20:09 70° 117° (ESE) 16:31:24 29.354- 29.394
AIST 2 02 Sep 16:16:10 16:20:25 89° 122° (ESE) 16:24:42 435.215
KKS-1 02 Sep 16:17:16 16:21:47 81° 284° (WNW) 16:26:16 437.445
GONETS M04 02 Sep 16:21:22 16:26:52 18° 281° (W) 16:31:52
HORYU 2 02 Sep 16:26:57 16:31:22 56° 260° (W) 16:35:49 437.375
MOZHAYETS 4 02 Sep 16:43:39 16:47:35 28° 95° (E) 16:51:32
Cubesat XI-IV 02 Sep 17:04:12 17:07:23 17° 62° (ENE) 17:10:46 437.490
JAS-2 02 Sep 17:30:31 17:31:42 10° 281° (W) 17:32:08 435.910
STARS 02 Sep 17:30:52 17:34:27 23° 292° (WNW) 17:37:54 437.465
O/OREOS (USA 219) 02 Sep 17:38:32 17:39:19 11° 98° (E) 17:40:23 437.305
CUTE-I 02 Sep 17:46:35 17:51:27 39° 69° (ENE) 17:56:22 437.470
Cosmos 2499 02 Sep 17:48:15 17:53:20 17° 282° (WNW) 17:57:44 435.465 / 435.565
AIST 2 02 Sep 17:57:31 17:59:38 13° 321° (NW) 18:01:37 435.215
AO-7 02 Sep 18:01:58 18:06:56 16° 273° (W) 18:11:22 29.400- 29.500
MOZHAYETS 4 02 Sep 18:20:52 18:24:45 28° 291° (WNW) 18:28:34
RS-15 02 Sep 18:23:18 18:33:31 40° 323° (NW) 18:44:03 29.354- 29.394
Cosmos 2491 02 Sep 18:37:38 18:43:20 19° 60° (ENE) 18:49:28 435.465 / 435.565
AIST 1 02 Sep 18:41:23 18:45:11 29° 75° (ENE) 18:49:03
Cubesat XI-IV 02 Sep 18:41:42 18:47:00 68° 258° (WSW) 18:52:19 437.490
CUBESAT XI-V 02 Sep 18:42:32 18:47:00 45° 98° (E) 18:51:28 437.345
HO-68 02 Sep 19:05:45 19:10:51 22° 58° (ENE) 19:16:12 435.675
O/OREOS (USA 219) 02 Sep 19:13:39 19:18:10 72° 293° (WNW) 19:22:45 437.305
STRAND 1 02 Sep 19:21:00 19:25:23 29° 95° (E) 19:29:49 437.568
BRITE-PL 02 Sep 19:26:26 19:30:43 54° 73° (ENE) 19:35:23 437.365/2234.400
CUTE-I 02 Sep 19:27:11 19:31:39 27° 266° (W) 19:36:03 437.470
GOMX 1 02 Sep 19:44:44 19:49:07 49° 72° (ENE) 19:53:52 467.674
CUTE 1.7 + AOD 2 02 Sep 19:46:32 19:49:38 20° 68° (ENE) 19:52:51 437.475
DOVE 4 02 Sep 19:48:28 19:52:37 33° 69° (ENE) 19:57:05 437.250
PRISM 02 Sep 19:52:11 19:56:02 38° 98° (E) 19:59:54 437.425
CANX-2 02 Sep 20:00:07 20:03:54 31° 71° (ENE) 20:07:42 2200.000
SEEDS 02 Sep 20:17:43 20:21:33 34° 72° (ENE) 20:25:26 437.485
CINEMA 3 02 Sep 20:18:49 20:22:54 30° 69° (ENE) 20:27:13 145.822/145.860
AIST 1 02 Sep 20:19:18 20:22:43 22° 271° (W) 20:26:01
CUBESAT XI-V 02 Sep 20:20:49 20:24:08 19° 293° (WNW) 20:27:19 437.345
Cosmos 2491 02 Sep 20:32:50 20:41:38 89° 264° (W) 20:50:27 435.465 / 435.565
COMPASS 1 02 Sep 20:35:55 20:39:53 42° 73° (ENE) 20:43:53 437.405
Oscar 11 02 Sep 20:36:01 20:38:49 17° 67° (ENE) 20:41:45 145.826/435.025
YUBILEINY 02 Sep 20:39:10 20:47:20 47° 89° (E) 20:55:39 435.215
RS-15 02 Sep 20:42:16 20:50:25 21° 356° (N) 20:58:47 29.354- 29.394
AAUSAT CUBESAT 2 02 Sep 20:44:13 20:48:12 44° 73° (ENE) 20:52:12 437.432
HO-68 02 Sep 20:50:46 20:57:56 76° 256° (WSW) 21:05:10 435.675
DELFI C3 02 Sep 20:54:44 20:57:13 16° 67° (ENE) 20:59:50 145.870
STRAND 1 02 Sep 21:00:01 21:04:37 34° 291° (WNW) 21:09:09 437.568
BRITE-PL 02 Sep 21:07:20 21:09:49 14° 273° (W) 21:12:09 437.365/2234.400
CUTE 1.7 + AOD 2 02 Sep 21:21:23 21:25:21 35° 264° (W) 21:29:16 437.475
ZACube-1 02 Sep 21:22:17 21:26:24 36° 71° (ENE) 21:30:38 437.345
GOMX 1 02 Sep 21:24:40 21:27:41 17° 272° (W) 21:30:40 467.674
DOVE 4 02 Sep 21:26:31 21:30:27 26° 268° (W) 21:34:30 437.250
FUNcube-1 02 Sep 21:26:35 21:30:47 38° 71° (ENE) 21:35:03 145.935
PRISM 02 Sep 21:28:23 21:31:12 18° 293° (WNW) 21:33:55 437.425
CUBEBUG 2 02 Sep 21:31:03 21:35:42 75° 75° (ENE) 21:40:28 437.445
Cosmos 2504 02 Sep 21:32:51 21:34:31 11° 74° (ENE) 21:36:56 435.465 / 435.565
UWE-3 02 Sep 21:33:34 21:38:06 62° 75° (ENE) 21:42:46 435.000/436.395/437.385
CANX-2 02 Sep 21:36:27 21:39:52 22° 267° (W) 21:43:12 2200.000
HUMSAT D 02 Sep 21:49:52 21:53:28 27° 70° (ENE) 21:57:10 437.325/437.525
SEEDS 02 Sep 21:54:17 21:57:28 20° 268° (W) 22:00:31 437.485
BEESAT 3 02 Sep 21:55:51 21:56:03 10° 36° (NE) 21:56:24 437.485
CINEMA 3 02 Sep 21:55:55 22:00:04 29° 266° (W) 22:04:18 145.822/145.860
DX 1 02 Sep 22:06:59 22:10:29 25° 68° (ENE) 22:14:03 434.975-435.025
BEESAT 2 02 Sep 22:10:29 22:11:28 11° 37° (NE) 22:12:37 435.950
Oscar 11 02 Sep 22:10:32 22:14:42 44° 262° (W) 22:18:52 145.826/435.025
COMPASS 1 02 Sep 22:13:09 22:15:48 16° 269° (W) 22:18:17 437.405
UKube-1 02 Sep 22:15:56 22:19:33 27° 69° (ENE) 22:23:15 .
AAUSAT CUBESAT 2 02 Sep 22:21:33 22:24:04 15° 270° (W) 22:26:24 437.432
DELFI C3 02 Sep 22:28:10 22:32:00 40° 262° (W) 22:35:49 145.870
Cosmos 2491 02 Sep 22:31:59 22:37:26 17° 281° (W) 22:42:22 435.465 / 435.565
CUBEBUG 1 02 Sep 22:32:24 22:35:14 18° 66° (ENE) 22:38:13 437.445
ESTCUBE 1 02 Sep 22:33:03 22:36:29 23° 68° (ENE) 22:40:02 437.505/2401.250
YUBILEINY 02 Sep 22:36:12 22:44:21 39° 289° (WNW) 22:52:26 435.215
AISAT 02 Sep 22:37:30 22:41:27 34° 70° (ENE) 22:45:29 437.250
HO-68 02 Sep 22:44:13 22:47:02 12° 275° (W) 22:49:15 435.675
50 SAT 02 Sep 22:50:56 22:54:46 52° 75° (ENE) 22:58:38 437.505
UNISAT 6 02 Sep 22:54:59 22:59:00 30° 95° (E) 23:02:57 437.425
RS-15 02 Sep 22:58:00 23:07:57 32° 30° (NNE) 23:18:27 29.354- 29.394
ZACube-1 02 Sep 22:59:14 23:02:52 22° 268° (W) 23:06:25 437.345
FUNcube-1 02 Sep 23:03:45 23:07:14 21° 268° (W) 23:10:39 145.935
VELOX 1 02 Sep 23:04:35 23:08:56 64° 74° (ENE) 23:13:20 145.980
CUBEBUG 2 02 Sep 23:11:36 23:13:02 11° 274° (W) 23:14:10 437.445
UWE-3 02 Sep 23:12:48 23:15:08 13° 272° (W) 23:17:14 435.000/436.395/437.385
CUSAT 1 02 Sep 23:15:12 23:18:15 20° 84° (E) 23:22:05 437.405
AUBIESAT-1 02 Sep 23:16:16 23:19:12 21° 98° (E) 23:22:03 437.475
Cosmos 2504 02 Sep 23:17:09 23:25:11 65° 92° (E) 23:33:40 435.465 / 435.565
TIGRISAT 02 Sep 23:22:18 23:26:49 58° 100° (E) 23:31:10 435.000
M-CUBED/EXP-1 PRIME 02 Sep 23:23:28 23:26:58 32° 101° (E) 23:30:14 437.505
HUMSAT D 02 Sep 23:25:27 23:29:09 26° 266° (W) 23:32:48 437.325/437.525
BEESAT 3 02 Sep 23:30:44 23:34:46 72° 55° (NE) 23:38:44 437.485
BUGSAT 1 02 Sep 23:36:23 23:39:14 18° 92° (E) 23:42:12 437.445
POLYITAN 1 02 Sep 23:38:00 23:41:51 31° 96° (E) 23:45:42 437.675
DUCHIFAT 1 02 Sep 23:38:06 23:41:51 29° 96° (E) 23:45:37 145.980
POPSAT HIP 1 02 Sep 23:39:39 23:43:31 32° 96° (E) 23:47:23 437.405
ANTELSAT 02 Sep 23:40:20 23:44:55 85° 286° (WNW) 23:49:21 437.575/2403.000
DX 1 02 Sep 23:42:48 23:46:38 29° 264° (W) 23:50:25 434.975-435.025
BEESAT 2 02 Sep 23:46:11 23:50:16 78° 57° (ENE) 23:54:16 435.950
UKube-1 02 Sep 23:51:59 23:55:39 26° 265° (W) 23:59:15 .
SPROUT 02 Sep 23:53:41 23:57:41 40° 72° (ENE) 00:01:45 437.525
NANOSAT C BR1 02 Sep 23:56:11 00:00:22 49° 99° (E) 00:04:30 145.865
QB50P2 02 Sep 23:56:59 00:01:12 52° 100° (E) 00:05:24 145.880/145.840
DANDE 02 Sep 23:59:18 00:02:31 31° 89° (E) 00:06:45 436.750
CUBEBUG 1 03 Sep 00:07:12 00:11:18 42° 262° (W) 00:15:26 437.445
ESTCUBE 1 03 Sep 00:09:05 00:13:11 34° 263° (W) 00:17:16 437.505/2401.250
QB50P1 03 Sep 00:10:45 00:15:04 74° 101° (E) 00:19:21 145.935-145.965
AISAT 03 Sep 00:14:40 00:18:07 22° 267° (W) 00:21:30 437.250
SO-50 03 Sep 00:26:05 00:30:32 41° 116° (ESE) 00:35:10 436.795
50 SAT 03 Sep 00:28:15 00:29:40 11° 271° (W) 00:30:51 437.505
UNISAT 6 03 Sep 00:31:54 00:35:40 25° 292° (WNW) 00:39:17 437.425
ITUPSAT 1 03 Sep 00:36:33 00:38:41 13° 62° (ENE) 00:41:03 437.325
AIST 2 03 Sep 00:38:03 00:42:10 54° 54° (NE) 00:46:12 435.215
VELOX 1 03 Sep 00:44:27 00:46:00 11° 272° (W) 00:47:18 145.980
TISAT 1 03 Sep 00:48:16 00:52:29 87° 258° (WSW) 00:56:44 437.305
AUBIESAT-1 03 Sep 00:50:43 00:53:57 25° 297° (WNW) 00:56:56 437.475
